Weather in Coronation

Canada     52°05′39″N   111°26′56″W
temp.,
°C
wind,
m/s
gust,
m/s
humid.,
%
clouds,
%
prec.,
mm/h
press.,
hPa
HPBL,
m
15 august, mon
mon1500:00+17ene34685 0.0 101565
03:00+16e357097 0.0 1016112
06:00+15ese34775 0.1 101668
09:00+20ese46585 0.0 1015346
12:00+26se67385 0.0 10141475
15:00+29sse5729100 0.0 10122720
18:00+29ssw4626100 0.0 10112515
21:00+22wnw354792 0.0 101178
16 august, tue
tue1600:00+18nnw016613 0.0 101311
03:00+17nw337627 0.0 101327
06:00+15nnw337871 0.0 101337
09:00+21nnw125790 0.0 1013184
12:00+28nw113429 0.0 1012742
15:00+31nnw122598 0.0 10111797
18:00+29n4330100 0.0 10101317
21:00+22nne6116047 0.0 1013350
17 august, wed
wed1700:00+19n41071100 0.0 1015224
03:00+17nnw51083100 2.7 1017293
06:00+15nnw499150 2.9 1018226
09:00+18n711723 0.0 1019413
12:00+24nnw67463 0.0 1019958
15:00+25nnw67401 0.0 10181468
18:00+25n56441 0.0 10181368
21:00+19n33654 0.0 101938
18 august, thu
thu1800:00+17n22740 0.0 102012
03:00+16nne117662 0.0 102011
06:00+15e11774 0.0 102011
09:00+21se22560 0.0 1020265
12:00+26se44350 0.0 10191586
15:00+28se43290 0.0 10171946
18:00+27se44290 0.0 10161890
21:00+21ese34410 0.0 101651
19 august, fri
fri1900:00+19se49440 0.0 1017140
03:00+18se410480 0.0 1016173
06:00+17se412510 0.0 1016228
09:00+22sse6124374 0.0 1015457
12:00+27sse793285 0.0 10141282
15:00+30sse78275 0.0 10121845
18:00+30sse682578 0.0 10101755
21:00+23se411335 0.0 1011185